Home > Weather > Monterey > Past weeks

Flag for USA Past Weather in Monterey, California, USA — Yesterday and Last 2 Weeks

Now
57 °F

Fog.


Feels Like: 56 °F
Forecast: 55 / 64 °F
Wind: 6 mph from West

Location: Monterey Peninsula Airport

Current Time: Jul 30, 2016 at 10:34:35 PM

Latest Report: Jul 30, 2016 at 8:58 PM


Visibility: 3 mi

Pressure: 29.87 "Hg

Humidity: 94%

Dew Point: 55 °F

Location of MontereyLocation

Past Weather in Monterey — Graph

°F

Monterey Temperature Yesterday

Maximum temperature yesterday: 68 °F (at 2:54 PM)
Minimum temperature yesterday: 53 °F (at 3:54 AM)
Average temperature yesterday: 58 °F

High & Low Weather Summary for the Past Weeks

 TemperatureHumidityPressure
High68 °F (Jul 29, 2:54 PM)100% (Jul 25, 5:54 AM)30.18 "Hg (Jul 25, 5:54 AM)
Low48 °F (Jul 26, 7:02 AM)56% (Jul 22, 5:54 PM)29.84 "Hg (Jul 29, 9:01 PM)
Average58 °F83%30.01 "Hg
* Reported Jul 15 8:54 PM — Jul 30 8:58 PM, Monterey, Weather by CustomWeather, © 2016

Note: Actual official high and low records may vary slightly from our data, if they occured in-between our weather recording intervals... More about our weather records

Advertising

Monterey Weather History for the Previous 24 Hours

Scroll right to see more
 ConditionsComfort  
Time TempWeatherWind HumidityBarometerVisibility
8:58 PM
Sat, Jul 30
57 °FFog.6 mph94%29.87 "Hg3 mi
6:54 PM59 °FPartly sunny.8 mph88%29.85 "Hg4 mi
2:54 PM66 °FPartly sunny.12 mph65%29.91 "Hg9 mi
1:54 PM66 °FOvercast.10 mph63%29.91 "Hg7 mi
12:54 PM65 °FOvercast.7 mph66%29.91 "Hg7 mi
12:01 PM63 °FMostly cloudy.5 mph73%29.89 "Hg10 mi
11:54 AM62 °FScattered clouds.3 mph73%29.92 "Hg10 mi
10:54 AM59 °FMostly cloudy.5 mph81%29.91 "Hg10 mi
9:54 AM57 °FLow clouds.No wind83%29.90 "Hg9 mi
8:54 AM55 °FLow clouds.5 mph90%29.90 "Hg10 mi
7:54 AM55 °FLow clouds.3 mph90%29.88 "Hg10 mi
6:54 AM54 °FLow clouds.No wind93%29.87 "Hg8 mi
5:54 AM54 °FLow clouds.3 mph93%29.85 "Hg9 mi
4:54 AM54 °FLow clouds.No wind93%29.85 "Hg9 mi
3:54 AM54 °FLow clouds.No wind97%29.85 "Hg10 mi
2:54 AM55 °FLow clouds.3 mph93%29.85 "Hg10 mi
1:54 AM55 °FLow clouds.No wind93%29.86 "Hg10 mi
12:54 AM55 °FLow clouds.3 mph93%29.87 "Hg9 mi
11:54 PM
Fri, Jul 29
56 °FLow clouds.3 mph93%29.87 "Hg10 mi
10:54 PM56 °FLow clouds.3 mph93%29.88 "Hg10 mi
Weather by CustomWeather, © 2016

See weather overviewHow to use our weather pages